Home > Time Zones > World Clock > Weather > Norway > Ski > Past weeks

Flag for Norway Weather past 2 weeks in Ski, Norway

Now
50 °F

Sprinkles. Partly sunny.


Feels Like: 40 °F
Forecast: 48 / 54 °F
Wind: 52 mph from South

Location: Oslo / Fornebu

Current Time: Oct 25, 2014 at 3:45:01 PM

Latest Report: Oct 25, 2014 at 2:50 PM


Visibility: N/A

Pressure: 29.36 "Hg

Humidity: 88%

Dew point: 46 °F

Location of SkiLocation

Historic Weather in Ski — Graph

°F

Ski temperature yesterday

Maximum temperature yesterday: 54 °F (at 12:20 AM)
Minimum temperature yesterday: 48 °F (at 11:20 AM)
Average temperature yesterday: 51 °F

Past Weeks' High & Low Weather Summary

 TemperatureHumidityPressure
High57 °F (Oct 11, 2:20 PM)100% (Oct 10, 11:50 PM)30.01 "Hg (Oct 10, 11:50 PM)
Low45 °F (Oct 21, 9:20 PM)54% (Oct 17, 4:20 AM)29.03 "Hg (Oct 21, 1:20 PM)
Average51 °F82%29.64 "Hg
* Reported Oct 10 2:20 PM — Oct 25 2:20 PM, Ski, Weather by CustomWeather, © 2014

Note: Actual official high and low records may vary slightly from our data, if they occured in-between our weather recording intervals... More about our weather records

Advertising

Ski weather history for previous 24 hours

 ConditionsComfort  
Time TempWeatherWind HumidityBarometerVisibility
2:20 PM
Oct 25
50 °FDrizzle. Partly sunny.47 mph94%29.36 "Hg3 mi
1:50 PM52 °FLight rain. Overcast.48 mph82%29.39 "HgN/A
1:20 PM52 °FPartly sunny.45 mph82%29.39 "HgN/A
12:50 PM52 °FScattered clouds.46 mph82%29.42 "HgN/A
12:20 PM52 °FScattered clouds.46 mph82%29.42 "HgN/A
11:50 AM52 °FScattered clouds.44 mph82%29.45 "HgN/A
11:20 AM52 °FPassing clouds.43 mph77%29.45 "HgN/A
10:50 AM52 °FPartly sunny.41 mph77%29.45 "HgN/A
10:20 AM50 °FScattered clouds.38 mph82%29.45 "HgN/A
9:50 AM50 °FPassing clouds.37 mph82%29.45 "HgN/A
9:20 AM50 °FScattered clouds.39 mph82%29.45 "HgN/A
8:50 AM48 °FRain showers. Fog.37 mph82%29.47 "Hg1 mi
8:20 AM50 °FPassing clouds.37 mph88%29.45 "HgN/A
7:50 AM50 °FPassing clouds.37 mph82%29.47 "HgN/A
7:20 AM50 °FPassing clouds.36 mph82%29.45 "HgN/A
6:50 AM50 °FPassing clouds.35 mph82%29.47 "HgN/A
6:20 AM52 °FPassing clouds.37 mph82%29.47 "HgN/A
5:50 AM50 °FPassing clouds.35 mph82%29.47 "HgN/A
5:20 AM50 °FPassing clouds.35 mph82%29.47 "HgN/A
4:50 AM50 °FSprinkles. Passing clouds.37 mph88%29.47 "HgN/A
4:20 AM50 °FSprinkles. Passing clouds.32 mph82%29.47 "HgN/A
3:50 AM50 °FSprinkles. Passing clouds.31 mph88%29.47 "HgN/A
3:20 AM48 °FSprinkles. Passing clouds.38 mph82%29.47 "Hg6 mi
2:50 AM52 °FPassing clouds.32 mph82%29.50 "HgN/A
2:20 AM52 °FPartly cloudy.N/A82%29.47 "HgN/A
1:50 AM50 °FPartly cloudy.36 mph88%29.50 "HgN/A
1:20 AM50 °FPassing clouds.36 mph88%29.50 "HgN/A
12:50 AM50 °FLight rain. Passing clouds.29 mph88%29.50 "Hg6 mi
12:20 AM50 °FPassing clouds.33 mph82%29.50 "HgN/A
11:50 PM
Oct 24
50 °FPassing clouds.35 mph88%29.53 "HgN/A
11:20 PM50 °FPartly cloudy.36 mph82%29.53 "HgN/A
10:50 PM50 °FPartly cloudy.37 mph82%29.53 "HgN/A
10:20 PM52 °FPartly cloudy.36 mph77%29.53 "HgN/A
9:50 PM52 °FPassing clouds.38 mph77%29.53 "HgN/A
9:20 PM50 °FSprinkles. Passing clouds.36 mph82%29.53 "HgN/A
8:50 PM50 °FPartly cloudy.37 mph76%29.53 "HgN/A
8:20 PM50 °FPartly cloudy.36 mph82%29.53 "HgN/A
7:50 PM50 °FPartly cloudy.35 mph82%29.53 "HgN/A
7:20 PM50 °FPassing clouds.36 mph82%29.53 "HgN/A
6:50 PM50 °FPassing clouds.33 mph76%29.53 "HgN/A
6:20 PM50 °FPartly sunny.33 mph76%29.56 "HgN/A
5:50 PM50 °FScattered clouds.32 mph76%29.53 "HgN/A
5:20 PM50 °FPartly sunny.33 mph76%29.56 "HgN/A
4:50 PM50 °FPassing clouds.32 mph76%29.56 "HgN/A
4:20 PM50 °FPartly sunny.32 mph76%29.56 "HgN/A
3:50 PM50 °FScattered clouds.31 mph76%29.56 "HgN/A
3:20 PM50 °FSprinkles. Partly sunny.30 mph67%29.56 "HgN/A
Weather by CustomWeather, © 2014

See weather overviewHow to use our weather pages